Tracking 30701 objects as of 14-Jun-2025
HD Live streaming from Space Station
objects crossing your sky now

STARLINK-11127

Track STARLINK-11127 now!
10-day predictions
STARLINK-11127 is classified as:


NORAD ID: 60119
Int'l Code: 2024-118G
Perigee: 366.2 km
Apogee: 367.6 km
Inclination: 53.2 °
Period: 91.7 minutes
Semi major axis: 6737 km
RCS: Unknown
Launch date: June 24, 2024
Source: United States (US)
Launch site: AIR FORCE WESTERN TEST RANGE (AFWTR)
Your satellite tracking list
Your tracking list is empty




NASA's NSSDC Master Catalog

Two Line Element Set (TLE):
1 60119U 24118G   25164.24101130 -.00000704  00000-0 -95213-6 0  9992
2 60119  53.1597 109.5251 0001058  85.9020 274.2119 15.69705714 55674
Source of the keplerian elements: AFSPC